Location: Isleham
(52.3333°N, 0.4167°E)
Time: 12:27:00
(UTC+00:00)

Daily predictions for brighter satellites

Satellite Brightness Start Highest point End
(mag) Time Altitude Azimuth Time Altitude Azimuth Time Altitude Azimuth
Cosmos 1125 Rocket 4.1 18:44:28 10° NNW 18:49:23 40° NE 18:54:17 10° SE
ATLAS 2AS CENTAUR R/B 3.8 18:43:00 10° W 18:49:55 46° NNW 18:56:35 10° NE
Meteor PRIRODA 3.4 18:47:15 10° SSE 18:50:30 58° ENE 18:53:44 10° N
Cosmos 1842 3.5 18:47:32 10° N 18:51:00 42° ENE 18:54:27 10° SSE
USA 59 Rocket 0.3 18:48:55 10° NW 18:52:34 67° SW 18:57:32 10° SE
Cosmos 1707 3.0 18:51:27 10° N 18:54:49 38° ENE 18:58:09 10° SE
Cosmos 1515 Rocket 4.2 18:50:59 10° N 18:54:58 35° ENE 18:58:58 10° SE
Cosmos 1536 3.9 18:52:08 10° SE 18:55:06 22° E 18:58:06 10° NE
Cosmos 2061 Rocket 4.2 18:49:53 10° S 18:56:20 90° E 19:02:49 10° N
COSMOS 2428 2.9 18:50:53 10° S 18:56:23 52° ESE 19:01:57 10° NE
Cosmos 1818 3.6 18:55:51 10° SW 19:01:19 81° SE 19:06:50 10° NE
Okean O Rocket 2.6 18:58:27 10° ESE 19:02:15 29° ENE 19:06:04 10° N
Cosmos 2278 Rocket 2.2 18:59:44 10° NNW 19:05:27 79° ENE 19:11:07 10° SE
DMSP B5D1-3 4.5 19:02:01 10° NNE 19:07:08 77° ESE 19:12:12 10° S
USA 306 2.5 19:04:43 10° SW 19:07:44 50° SSE 19:11:16 10° ENE
CZ-4B DEB 4.2 19:04:34 10° SSE 19:10:06 88° ENE 19:15:38 10° NNW
CZ-4 R/B 1.2 19:07:13 10° SSE 19:11:02 75° ENE 19:14:58 10° N
NOSS 2-1 (C) 4.4 19:09:20 10° WNW 19:12:54 46° SW 19:17:39 10° SSE
CZ-4B R/B 3.3 19:09:16 10° SE 19:14:36 60° ENE 19:19:53 10° N
Meteor 2-17 Rocket 4.4 19:08:50 10° N 19:14:54 72° ENE 19:20:57 10° SSE
Cosmos 1766 Rocket 3.5 19:10:45 10° S 19:15:04 71° E 19:19:29 10° NNE
Helios 1A 2.9 19:11:49 10° NNE 19:15:52 59° ESE 19:19:51 10° S
USA 290 2.5 19:12:41 10° NNW 19:15:59 72° WSW 19:19:15 10° SSE
Resurs 01 Rocket 1.7 19:12:15 10° SSE 19:16:37 61° ENE 19:21:00 10° N
YAOGAN 1 4.5 19:15:19 10° SSW 19:19:10 32° W 19:23:03 10° NNW
ADEOS 4.0 19:14:07 10° S 19:19:18 67° WSW 19:24:32 10° NNW
GEOS 3 Rocket 3.9 19:14:37 10° SE 19:19:49 71° SW 19:25:01 10° NW
USA 186 1.7 19:18:40 10° SSE 19:21:51 67° ENE 19:25:05 10° N
KORONAS-FOTON 3.8 19:18:12 10° NNW 19:21:56 82° W 19:25:36 10° S
CZ-4B R/B 3.9 19:17:27 10° S 19:22:08 60° WSW 19:26:56 10° NNW
Cosmos 1814 Rocket 4.0 19:17:28 10° SSW 19:22:44 73° ESE 19:27:58 10° NNE
Cosmos 2360 Rocket 3.8 19:17:35 10° WSW 19:22:48 37° NW 19:28:03 10° NNE
PAYLOAD B 4.3 19:17:37 10° SSE 19:23:14 87° ENE 19:28:53 10° NNW
Cosmos 1743 3.7 19:20:10 10° SSW 19:23:37 47° WNW 19:27:06 10° N
MOS 1-B 4.5 19:18:51 10° SE 19:24:31 59° ENE 19:30:12 10° N
SPOT 5 3.8 19:22:14 14° ESE 19:25:16 28° ENE 19:29:03 10° N
Okean-O 3.6 19:23:04 15° ESE 19:26:02 29° ENE 19:29:51 10° N
SKYMED 3 4.4 19:22:37 10° NNE 19:26:47 89° ESE 19:30:53 10° SSW
USA 267 3.7 19:21:40 10° ENE 19:28:04 61° N 19:34:30 10° WNW
Cosmos 1408 Rocket 4.2 19:25:19 10° SSE 19:29:15 34° E 19:33:14 10° NNE
ISS -2.5 19:26:49 10° SSW 19:29:34 24° SSE 19:30:43 20° ESE
SPOT 1/Viking Rocket 4.2 19:25:24 10° S 19:30:29 57° W 19:35:35 10° NNW
CZ-4B R/B 3.1 19:27:15 10° S 19:31:07 71° WSW 19:35:14 10° NNW
Kosmos-1783 1.9 19:30:19 10° SW 19:32:24 73° NW 19:33:12 24° NE
SL-08 R/B 3.6 19:27:29 10° NNE 19:32:26 80° WNW 19:37:21 10° SSW
Cosmos 2237 Rocket 2.4 19:30:09 10° S 19:35:26 44° ESE 19:40:46 10° NE
Cosmos 2322 Rocket 4.3 19:30:33 10° W 19:35:28 29° NW 19:40:25 10° NNE
Aureole 3 Rocket 4.2 19:32:25 10° SSE 19:38:17 36° E 19:42:41 10° NNE
CSL-04 Rocket 3.6 19:33:02 10° SSE 19:38:23 80° ENE 19:43:42 10° NNW
Cosmos 1674 4.3 19:36:38 10° NNW 19:39:38 31° W 19:42:35 10° SSW
Cosmos 2219 Rocket 3.4 19:34:39 10° WSW 19:40:06 46° NW 19:45:35 10° NNE
Cosmos 1356 Rocket 3.8 19:37:44 10° NNW 19:41:55 67° W 19:46:03 10° S
Lacrosse 4 Rocket 4.2 19:40:52 10° WNW 19:43:33 16° WSW 19:46:13 10° SW
Meteor 1-14 Rocket 4.2 19:38:44 10° SSW 19:44:16 87° WNW 19:49:52 10° NNE
Meteor 1-4 Rocket 4.0 19:42:36 10° NW 19:44:56 27° W 19:47:15 10° SSW
SJ-6B 4.5 19:43:39 10° SSW 19:46:53 31° W 19:50:08 10° NNW
Meteor 1-11 Rocket 3.7 19:41:51 10° S 19:47:19 56° E 19:52:44 10° NNE
MOS 1 Rocket 4.2 19:45:39 21° ESE 19:48:34 38° ENE 19:53:27 10° N
SeaSat 1 4.3 19:46:39 10° NNE 19:51:01 33° NW 19:55:23 10° WSW
CARTOSAT-1 3.9 19:47:26 10° S 19:51:39 65° WSW 19:55:54 10° NNW
NOSS 3-4 (A) 4.1 19:45:46 10° NW 19:52:06 54° NNE 19:57:11 20° ESE
ATLAS CENTAUR R/B 1.6 19:48:55 10° S 19:52:12 35° ESE 19:54:53 15° ENE
NOSS 3-4 (C) 4.1 19:45:53 10° NW 19:52:13 54° NNE 19:57:18 20° ESE
Cosmos 158 Rocket 4.0 19:47:45 10° S 19:52:23 46° ESE 19:57:03 10° NE
Cosmos 1805 Rocket 4.0 19:52:47 20° SSE 19:55:20 39° E 19:59:24 10° NNE
Cosmos 1428 Rocket 4.4 19:50:54 10° N 19:57:01 69° ENE 20:02:19 14° SSE
Cosmos 2333 Rocket 4.4 19:53:54 10° W 19:58:47 27° NW 20:03:40 10° NNE
Cosmos 1733 2.8 19:56:08 10° S 19:59:34 90° S 20:03:01 10° N
In-Cosmos 22 4.4 19:54:01 10° NNW 19:59:45 77° W 20:05:19 10° S
USA 276 3.8 19:58:06 10° WSW 20:00:08 18° SSW 20:00:38 17° SSW
Cosmos 2369 Rocket 3.0 19:57:01 10° NNW 20:02:23 39° NE 20:05:12 24° E
Cosmos 1980 3.6 19:59:15 10° SSW 20:04:54 74° ESE 20:10:36 10° NNE
SWARM A 4.4 20:03:47 12° S 20:07:03 82° W 20:10:35 10° N
Meteor 1-21 4.4 20:01:37 10° N 20:07:17 55° ENE 20:10:23 26° SE
Cosmos 1943 Rocket 2.7 20:04:06 10° NW 20:09:29 55° WSW 20:14:05 14° S
Cosmos 1707 Rocket 4.3 20:06:08 10° N 20:10:13 34° ENE 20:11:05 31° E
Sich 1 3.0 20:07:33 19° S 20:10:28 58° E 20:14:44 10° NNE
DELTA 2 DEB (DPAF) 4.4 20:07:21 10° NNE 20:11:17 38° E 20:11:47 37° ESE
Cosmos 2298 Rocket 4.0 20:08:02 10° NNW 20:13:23 89° ENE 20:16:27 26° SSE
NOSS 0 Rocket 4.0 20:07:12 10° SW 20:13:27 82° WNW 20:19:45 10° NNE
Nadezhda 4 Rocket 4.3 20:08:07 10° NNW 20:14:21 71° W 20:20:37 10° S
Cosmos 2195 Rocket 4.4 20:08:23 10° N 20:14:33 81° E 20:19:12 18° SSE
Cosmos 2150 Rocket 3.9 20:09:53 10° NNW 20:15:05 89° WSW 20:17:56 27° SSE
Terra 2.3 20:13:52 32° ESE 20:15:15 41° ENE 20:19:40 10° N
USA 32 3.9 20:10:31 10° N 20:15:48 80° E 20:19:24 21° S
ACS3 Solar Sail 2.0 20:09:36 10° SSE 20:15:58 82° WSW 20:22:25 10° NNW
ERS-1 Rocket 3.3 20:14:04 32° ESE 20:16:00 49° ENE 20:20:51 10° N
Cosmos 1570 Rocket 3.9 20:12:20 10° SSW 20:17:37 82° ESE 20:22:54 10° NNE
Cosmos 1975 3.2 20:18:58 40° E 20:18:58 40° E 20:22:26 10° NNE
OPS 6432 4.1 20:17:44 10° NW 20:20:56 72° SW 20:21:15 64° S
Cosmos 2026 Rocket 3.9 20:15:36 10° N 20:21:54 78° ENE 20:25:51 24° SSE
Cosmos 1315 Rocket 3.4 20:18:02 10° NNW 20:21:56 55° W 20:24:27 20° S
Cosmos 1092 Rocket 4.0 20:16:01 10° N 20:22:22 77° E 20:26:28 24° SSE
Cosmos 1805 2.9 20:21:36 42° S 20:22:44 74° E 20:26:24 10° NNE
Ariane Rocket 3.6 20:24:21 33° E 20:25:36 38° ENE 20:30:17 10° N
Meteor 2-12 Rocket 4.4 20:19:30 10° N 20:25:41 70° ENE 20:28:56 29° SSE
Cosmos 836 Rocket 4.4 20:22:54 10° SSW 20:28:09 69° ESE 20:33:26 10° NNE
IRS-1A Rocket 4.3 20:26:28 32° SE 20:29:15 71° ENE 20:34:55 10° NNW
Cosmos 1536 4.2 20:27:12 10° SW 20:30:46 37° WNW 20:34:23 10° N
Okean 3 3.8 20:28:41 10° N 20:32:41 43° ENE 20:32:44 43° ENE
SL-16 R/B 2.5 20:35:16 40° SE 20:35:51 42° ESE 20:41:10 10° NE
Okean O Rocket 2.7 20:35:02 15° SSW 20:38:23 41° W 20:42:36 10° NNW
Cosmos 1656 Rocket 3.6 20:33:43 10° NNW 20:39:26 79° ENE 20:41:19 44° SE
SL-14 R/B 3.5 20:35:50 10° NNW 20:39:36 62° W 20:40:36 43° SSW
Cosmos 1634 Rocket 4.0 20:36:32 26° SSE 20:40:10 65° E 20:46:27 10° NNE
USA 306 2.5 20:36:54 10° W 20:40:18 70° N 20:40:35 66° NNE
COSMOS 2428 4.2 20:35:32 10° WSW 20:40:51 38° NW 20:46:13 10° NNE
USA 59 Rocket 2.9 20:40:15 10° W 20:41:47 12° WSW 20:43:28 10° SW
ATLAS 2AS CENTAUR R/B 4.1 20:36:09 10° WNW 20:42:25 32° N 20:48:29 10° ENE
Okean 2 4.2 20:41:38 10° N 20:44:49 36° NE 20:44:49 36° NE
CZ-4 R/B 4.3 20:44:20 10° WSW 20:46:05 13° W 20:47:51 10° WNW
IRS-1C Rocket 4.0 20:45:02 43° SSE 20:46:50 86° ENE 20:52:09 10° NNW
Cosmos 773 Rocket 3.9 20:45:39 31° S 20:48:11 67° ESE 20:53:27 10° NNE
Cosmos 2278 Rocket 4.3 20:44:42 10° NW 20:48:53 22° W 20:53:04 10° SSW
Okean 1-7 3.8 20:45:04 10° N 20:48:39 37° NE 20:48:39 37° NE
Cosmos 839 Rocket 4.4 20:41:30 10° SW 20:49:53 86° NW 20:56:38 10° NE
Cosmos 2263 4.4 20:44:53 10° NNW 20:50:34 58° NE 20:51:55 46° ESE
Cosmos 1500 Rocket 4.2 20:47:41 11° SSW 20:51:50 53° WNW 20:56:07 10° N
Resurs 01 Rocket 4.1 20:50:15 10° SW 20:53:26 19° W 20:56:37 10° NW
Cosmos 2228 Rocket 3.0 20:50:06 10° N 20:54:42 90° E 20:55:20 66° S
Cosmos 1743 Rocket 4.0 20:56:20 27° SSW 20:58:32 59° WNW 21:02:51 10° N
SPOT 3 Rocket 3.4 21:00:55 61° ESE 21:01:36 69° ENE 21:06:43 10° NNW
Okean-O 3.7 21:00:31 27° SSW 21:02:17 40° W 21:06:28 10° NNW
SPOT 5 3.6 21:01:23 30° SSW 21:03:09 44° W 21:07:26 10° NNW
Cosmos 2142 Rocket 4.5 21:02:36 51° ESE 21:03:28 56° E 21:09:28 10° NNE
ISS -1.4 21:02:41 10° WSW 21:03:42 18° WSW 21:03:42 18° WSW
NOSS 3-3 (C) 3.7 21:00:57 10° SW 21:06:28 86° SE 21:13:07 10° NE
USA 267 3.3 21:08:22 42° E 21:10:49 77° NNE 21:17:22 10° WNW
Cosmos 2344 4.4 21:04:09 10° NW 21:11:25 46° NNE 21:17:16 22° E
Cosmos 724 4.2 21:15:31 61° E 21:15:31 61° E 21:20:47 10° NE
Cosmos 2180 Rocket 4.5 21:17:01 58° SE 21:17:48 62° E 21:24:05 10° NNE
Cosmos 2237 Rocket 3.4 21:14:13 10° WSW 21:19:33 42° NW 21:24:55 10° NNE
NOSS 3-3 (A) 3.9 21:15:08 10° SW 21:20:42 79° NW 21:27:23 10° NE
Cosmos 2279 Rocket 3.9 21:19:59 51° S 21:21:42 85° E 21:27:57 10° N
Cosmos 1607 3.8 21:18:28 10° SSW 21:24:56 78° SE 21:31:23 10° NE
Cosmos 2297 4.0 21:22:39 10° NW 21:28:10 56° WSW 21:28:59 51° SSW
ATLAS CENTAUR R/B 2.5 21:26:10 10° WSW 21:29:34 37° NW 21:29:51 36° NNW
Spot 2 Rocket 3.8 21:31:06 56° SW 21:31:36 59° W 21:36:35 10° NNW
Cosmos 1633 Rocket 3.8 21:43:08 51° NNW 21:43:08 51° NNW 21:46:39 10° N
NOSS 3-4 (A) 4.1 21:36:37 10° NW 21:43:14 57° SW 21:44:37 50° SSW
NOSS 3-4 (C) 4.1 21:36:43 10° NW 21:43:21 58° SW 21:44:43 51° SSW
Aureole 3 4.4 21:40:02 10° NNW 21:42:47 46° NNW 21:42:47 46° NNW
Cosmos 2369 Rocket 2.6 21:41:04 10° NW 21:46:37 51° WSW 21:46:58 50° SW
Terra 3.1 21:52:34 31° WSW 21:52:55 31° W 21:57:08 10° NNW
ERS-1 Rocket 4.4 21:53:59 27° WSW 21:54:58 29° W 21:59:20 10° NNW
ACS3 Solar Sail 4.1 21:56:48 10° WSW 22:01:00 18° W 22:05:13 10° NW
Ariane Rocket 4.0 22:04:29 38° W 22:04:32 38° W 22:09:16 10° NNW
Cosmos 1980 Rocket 4.5 22:04:21 10° NNW 22:07:50 16° NNE 22:10:30 12° NE
Cosmos 2266 Rocket 4.2 22:03:01 10° NNW 22:09:12 63° W 22:09:40 61° WSW
Cosmos 2056 Rocket 4.3 22:09:40 10° NNW 22:13:50 47° NNE 22:13:50 47° NNE
SL-16 R/B 3.1 22:17:00 25° WSW 22:19:58 45° NW 22:25:26 10° NNE
ATLAS 2AS CENTAUR R/B 3.4 22:28:15 10° NW 22:34:55 46° NNE 22:36:31 39° ENE
Cosmos 1943 3.9 22:41:44 48° NNE 22:41:44 48° NNE 22:45:46 10° NNE
Cosmos 1656 4.3 22:35:04 10° NNW 22:39:42 51° NNE 22:39:42 51° NNE
ARIANE 5 R/B 4.5 22:45:42 28° NNW 22:45:42 28° NNW 22:47:49 10° NNW
Cosmos 1697 Rocket 3.8 22:47:38 10° NNW 22:52:29 36° NE 22:52:29 36° NE
USA 267 3.9 22:55:43 43° W 22:55:43 43° W 23:00:28 10° WNW
ATLAS CENTAUR R/B 4.3 23:09:53 12° NNE 23:09:53 12° NNE 23:10:22 10° NNE
Cosmos 2344 3.8 23:18:33 10° NW 23:26:37 80° SW 23:27:14 77° S
Cosmos 1980 Rocket 3.3 23:47:53 10° NNW 23:52:13 41° NNE 23:52:13 41° NNE
